Flag for Falkland Islands Weather past 2 weeks in Stanley, Falkland Islands

Now
41 °F

Passing clouds.


Feels Like: 35 °F
Forecast: 42 / 49 °F
Wind: 10 mph from Southwest

Location: Mount Pleasant Airport

Current Time: Oct 22, 2014 at 3:29:18 AM

Latest Report: Oct 22, 2014 at 2:50 AM


Visibility: N/A

Pressure: 29.45 "Hg

Humidity: 87%

Dew point: 37 °F

Location of StanleyLocation

Historic Weather in Stanley — Graph

°F

Stanley temperature yesterday

Maximum temperature yesterday: 57 °F (at 1:50 PM)
Minimum temperature yesterday: 41 °F (at 12:50 AM)
Average temperature yesterday: 47 °F

Past Weeks' High & Low Weather Summary

 TemperatureHumidityPressure
High57 °F (Oct 15, 3:50 PM)100% (Oct 10, 7:50 PM)30.07 "Hg (Oct 10, 7:50 PM)
Low28 °F (Oct 12, 5:50 AM)35% (Oct 15, 4:50 PM)28.91 "Hg (Oct 13, 4:50 AM)
Average41 °F76%29.54 "Hg
* Reported Oct 7 1:50 AM — Oct 22 1:50 AM, Stanley, Weather by CustomWeather, © 2014

Note: Actual official high and low records may vary slightly from our data, if they occured in-between our weather recording intervals... More about our weather records

Advertising

Stanley weather history for previous 24 hours

 ConditionsComfort  
Time TempWeatherWind HumidityBarometerVisibility
1:50 AM
Oct 22
41 °FPassing clouds.16 mph87%29.45 "HgN/A
12:50 AM41 °FOvercast.15 mph87%29.45 "HgN/A
11:50 PM
Oct 21
43 °FOvercast.15 mph81%29.45 "HgN/A
10:50 PM43 °FPassing clouds.18 mph81%29.42 "HgN/A
9:50 PM43 °FPassing clouds.20 mph81%29.42 "HgN/A
8:50 PM45 °FPartly cloudy.18 mph93%29.42 "HgN/A
7:50 PM45 °FPartly sunny.16 mph87%29.39 "HgN/A
6:50 PM46 °FPartly sunny.13 mph87%29.39 "HgN/A
5:50 PM50 °FPassing clouds.18 mph76%29.36 "HgN/A
4:50 PM52 °FPartly sunny.17 mph77%29.36 "HgN/A
3:50 PM55 °FPartly sunny.16 mph72%29.33 "HgN/A
2:50 PM55 °FScattered clouds.16 mph72%29.33 "HgN/A
1:50 PM57 °FPartly sunny.18 mph67%29.33 "HgN/A
12:50 PM52 °FPartly sunny.16 mph82%29.30 "HgN/A
11:50 AM50 °FLow clouds.13 mph88%29.30 "HgN/A
10:50 AM48 °FPartly sunny.17 mph87%29.33 "HgN/A
9:50 AM48 °FLow clouds.7 mph94%29.33 "HgN/A
8:50 AM46 °FSunny.5 mph93%29.30 "HgN/A
7:50 AM45 °FBroken clouds.5 mph93%29.33 "HgN/A
6:50 AM43 °FPartly sunny.9 mph100%29.30 "HgN/A
5:50 AM43 °FPassing clouds.8 mph100%29.33 "HgN/A
4:50 AM43 °FFog.9 mph100%29.33 "Hg2 mi
3:50 AM43 °FFog.17 mph93%29.36 "Hg2 mi
Weather by CustomWeather, © 2014

See weather overviewHow to use our weather pages